Satellite: NOAA-11 Catalog number: 19531 Epoch time: 12165.75053596 Element set: 0953 Inclination: 098.7306 deg RA of node: 250.9816 deg Eccentricity: 0.0010381 Arg of perigee: 232.2600 deg Mean anomaly: 127.7636 deg Mean motion: 14.14969834 rev/day Decay rate: -1.49e-06 rev/day^2 Epoch rev: 22402 Checksum: 301
Satellite: NOAA-12 Catalog number: 21263 Epoch time: 12165.95899888 Element set: 0453 Inclination: 098.7289 deg RA of node: 187.6388 deg Eccentricity: 0.0013086 Arg of perigee: 208.0345 deg Mean anomaly: 152.0132 deg Mean motion: 14.25500603 rev/day Decay rate: 8.1e-07 rev/day^2 Epoch rev: 09609 Checksum: 316
Satellite: MET-3/5 Catalog number: 21655 Epoch time: 12166.49010021 Element set: 433 Inclination: 082.5553 deg RA of node: 154.0929 deg Eccentricity: 0.0012593 Arg of perigee: 334.1232 deg Mean anomaly: 025.9259 deg Mean motion: 13.17042172 rev/day Decay rate: -3.97e-06 rev/day^2 Epoch rev: 153 Checksum: 265
Satellite: MET-2/21 Catalog number: 22782 Epoch time: 12165.68536838 Element set: 0445 Inclination: 082.5485 deg RA of node: 035.2933 deg Eccentricity: 0.0022796 Arg of perigee: 158.7015 deg Mean anomaly: 201.5106 deg Mean motion: 13.83684184 rev/day Decay rate: -5.9e-07 rev/day^2 Epoch rev: 94868 Checksum: 333
Satellite: OKEAN-4 Catalog number: 23317 Epoch time: 12165.92961857 Element set: 0942 Inclination: 082.5406 deg RA of node: 034.2535 deg Eccentricity: 0.0022089 Arg of perigee: 007.5782 deg Mean anomaly: 352.5767 deg Mean motion: 14.83804994 rev/day Decay rate: 9.52e-06 rev/day^2 Epoch rev: 95432 Checksum: 328
Satellite: NOAA-14 Catalog number: 23455 Epoch time: 12165.93330240 Element set: 0936 Inclination: 098.8271 deg RA of node: 249.4729 deg Eccentricity: 0.0009241 Arg of perigee: 335.3158 deg Mean anomaly: 024.7567 deg Mean motion: 14.13903058 rev/day Decay rate: 5.6e-07 rev/day^2 Epoch rev: 90033 Checksum: 299
Satellite: NOAA-15 Catalog number: 25338 Epoch time: 12165.75685864 Element set: 0296 Inclination: 098.6897 deg RA of node: 152.6968 deg Eccentricity: 0.0011514 Arg of perigee: 115.7213 deg Mean anomaly: 244.5127 deg Mean motion: 14.25081344 rev/day Decay rate: 2.39e-06 rev/day^2 Epoch rev: 73236 Checksum: 326
Satellite: RESURS Catalog number: 25394 Epoch time: 12165.95938030 Element set: 0115 Inclination: 098.3184 deg RA of node: 154.3663 deg Eccentricity: 0.0000356 Arg of perigee: 248.8549 deg Mean anomaly: 111.2593 deg Mean motion: 14.24289200 rev/day Decay rate: -2.0e-08 rev/day^2 Epoch rev: 72394 Checksum: 290
Satellite: FENGYUN1 Catalog number: 25730 Epoch time: 12165.87840694 Element set: 626 Inclination: 098.8460 deg RA of node: 124.9163 deg Eccentricity: 0.0020415 Arg of perigee: 016.2342 deg Mean anomaly: 343.9492 deg Mean motion: 14.09595802 rev/day Decay rate: 1.526e-05 rev/day^2 Epoch rev: 67414 Checksum: 305
Satellite: OKEAN-0 Catalog number: 25860 Epoch time: 12165.93480607 Element set: 0655 Inclination: 097.9362 deg RA of node: 128.6445 deg Eccentricity: 0.0000530 Arg of perigee: 050.7774 deg Mean anomaly: 309.3480 deg Mean motion: 14.74216389 rev/day Decay rate: 5.48e-06 rev/day^2 Epoch rev: 69409 Checksum: 320
Satellite: NOAA-16 Catalog number: 26536 Epoch time: 12165.70864399 Element set: 0780 Inclination: 099.0946 deg RA of node: 207.7785 deg Eccentricity: 0.0011453 Arg of perigee: 093.3512 deg Mean anomaly: 266.8963 deg Mean motion: 14.12747112 rev/day Decay rate: -1.25e-06 rev/day^2 Epoch rev: 60454 Checksum: 323
Satellite: NOAA-17 Catalog number: 27453 Epoch time: 12165.86171849 Element set: 0737 Inclination: 098.3368 deg RA of node: 193.0672 deg Eccentricity: 0.0011998 Arg of perigee: 161.8495 deg Mean anomaly: 198.3099 deg Mean motion: 14.24444310 rev/day Decay rate: 9.0e-07 rev/day^2 Epoch rev: 51828 Checksum: 342
Satellite: NOAA-18 Catalog number: 28654 Epoch time: 12165.87620872 Element set: 0214 Inclination: 099.0451 deg RA of node: 123.9358 deg Eccentricity: 0.0014479 Arg of perigee: 160.5243 deg Mean anomaly: 199.6507 deg Mean motion: 14.11661344 rev/day Decay rate: 3.41e-06 rev/day^2 Epoch rev: 36409 Checksum: 309
Satellite: NOAA-19 Catalog number: 33591 Epoch time: 12165.88334822 Element set: 0406 Inclination: 098.8630 deg RA of node: 105.7128 deg Eccentricity: 0.0014698 Arg of perigee: 033.7072 deg Mean anomaly: 326.5033 deg Mean motion: 14.11350553 rev/day Decay rate: 5.51e-06 rev/day^2 Epoch rev: 17254 Checksum: 292
/EX SB KEPS @ AMSAT $ORB12166.M Orbital Elements 12166.MISC
HR AMSAT ORBITAL ELEMENTS FOR MANNED AND MISCELLANEOUS SATELLITES FROM WA5QGD FORT WORTH,TX June 14, 2012 Send SUBSCRIBE KEPS/UNSUBSCRIBE KEPS to [email protected] only BID: ORB12166.M TO ALL RADIO AMATEURS BT
Satellite: HUBBLE Catalog number: 20580 Epoch time: 12166.20154201 Element set: 17 Inclination: 028.4688 deg RA of node: 163.0832 deg Eccentricity: 0.0003008 Arg of perigee: 027.5789 deg Mean anomaly: 332.4986 deg Mean motion: 15.02553162 rev/day Decay rate: 1.394e-05 rev/day^2 Epoch rev: 1428 Checksum: 267
Satellite: ISS Catalog number: 25544 Epoch time: 12166.51132299 Element set: 745 Inclination: 051.6380 deg RA of node: 135.7761 deg Eccentricity: 0.0010768 Arg of perigee: 066.6258 deg Mean anomaly: 034.5777 deg Mean motion: 15.56363414 rev/day Decay rate: 1.2501e-04 rev/day^2 Epoch rev: 77759 Checksum: 314
Satellite: CO-58 Catalog number: 28895 Epoch time: 12166.41139944 Element set: 200 Inclination: 097.9136 deg RA of node: 032.8059 deg Eccentricity: 0.0018498 Arg of perigee: 156.0953 deg Mean anomaly: 204.1116 deg Mean motion: 14.60644161 rev/day Decay rate: 8.56e-06 rev/day^2 Epoch rev: 35325 Checksum: 314
Satellite: FALCON Catalog number: 30776 Epoch time: 12165.81193135 Element set: 0379 Inclination: 035.4329 deg RA of node: 297.4563 deg Eccentricity: 0.0002425 Arg of perigee: 340.4730 deg Mean anomaly: 019.5894 deg Mean motion: 15.07562851 rev/day Decay rate: 4.349e-05 rev/day^2 Epoch rev: 28974 Checksum: 318
Satellite: MAST Catalog number: 31126 Epoch time: 12165.98890774 Element set: 0491 Inclination: 097.8746 deg RA of node: 177.2775 deg Eccentricity: 0.0094642 Arg of perigee: 120.1485 deg Mean anomaly: 240.9129 deg Mean motion: 14.54165738 rev/day Decay rate: 6.16e-06 rev/day^2 Epoch rev: 27380 Checksum: 330
Satellite: CAPE1 Catalog number: 31130 Epoch time: 12165.54008777 Element set: 0493 Inclination: 097.8837 deg RA of node: 173.2387 deg Eccentricity: 0.0102354 Arg of perigee: 134.5899 deg Mean anomaly: 226.3715 deg Mean motion: 14.52945770 rev/day Decay rate: 9.34e-06 rev/day^2 Epoch rev: 27324 Checksum: 318
Satellite: COMPASS Catalog number: 32787 Epoch time: 12166.16992214 Element set: 327 Inclination: 097.7999 deg RA of node: 227.5713 deg Eccentricity: 0.0016418 Arg of perigee: 072.3237 deg Mean anomaly: 287.9760 deg Mean motion: 14.84013746 rev/day Decay rate: 2.300e-05 rev/day^2 Epoch rev: 22336 Checksum: 316
Satellite: AAUSAT2 Catalog number: 32788 Epoch time: 12165.87057394 Element set: 0320 Inclination: 097.8041 deg RA of node: 227.6604 deg Eccentricity: 0.0016394 Arg of perigee: 073.2553 deg Mean anomaly: 287.0449 deg Mean motion: 14.84336262 rev/day Decay rate: 2.944e-05 rev/day^2 Epoch rev: 22334 Checksum: 311
Satellite: DO-64 Catalog number: 32789 Epoch time: 12165.71944018 Element set: 0336 Inclination: 097.8119 deg RA of node: 229.5182 deg Eccentricity: 0.0015828 Arg of perigee: 070.8649 deg Mean anomaly: 289.4275 deg Mean motion: 14.85825234 rev/day Decay rate: 3.932e-05 rev/day^2 Epoch rev: 22336 Checksum: 343
Satellite: CO-66 Catalog number: 32791 Epoch time: 12165.61870398 Element set: 0319 Inclination: 097.7992 deg RA of node: 226.7777 deg Eccentricity: 0.0016853 Arg of perigee: 074.4925 deg Mean anomaly: 285.8148 deg Mean motion: 14.83428705 rev/day Decay rate: 2.321e-05 rev/day^2 Epoch rev: 22321 Checksum: 344
Satellite: RS-30 Catalog number: 32953 Epoch time: 12166.47277770 Element set: 868 Inclination: 082.5018 deg RA of node: 296.8249 deg Eccentricity: 0.0017890 Arg of perigee: 316.5738 deg Mean anomaly: 043.3935 deg Mean motion: 12.43024433 rev/day Decay rate: 1.0e-07 rev/day^2 Epoch rev: 18422 Checksum: 308
Satellite: TACSAT-3 Catalog number: 35001 Epoch time: 12121.72616188 Element set: 0001 Inclination: 040.4259 deg RA of node: 351.8840 deg Eccentricity: 0.0007146 Arg of perigee: 275.2650 deg Mean anomaly: 085.0693 deg Mean motion: 16.45157000 rev/day Decay rate: 1.5204951e-01 rev/day^2 Epoch rev: 16699 Checksum: 280
Satellite: PHARMSAT Catalog number: 35002 Epoch time: 12165.91022011 Element set: 934 Inclination: 040.4569 deg RA of node: 088.3726 deg Eccentricity: 0.0011416 Arg of perigee: 222.5029 deg Mean anomaly: 137.4917 deg Mean motion: 15.84823837 rev/day Decay rate: 1.60764e-03 rev/day^2 Epoch rev: 17380 Checksum: 284
Satellite: METEOR-M Catalog number: 35865 Epoch time: 12166.33443269 Element set: 501 Inclination: 098.6548 deg RA of node: 220.7141 deg Eccentricity: 0.0003377 Arg of perigee: 066.7401 deg Mean anomaly: 293.4130 deg Mean motion: 14.21864089 rev/day Decay rate: -7.0e-08 rev/day^2 Epoch rev: 14219 Checksum: 286
Satellite: RS-38 Catalog number: 35869 Epoch time: 12166.28565212 Element set: 507 Inclination: 098.6501 deg RA of node: 220.6618 deg Eccentricity: 0.0005512 Arg of perigee: 063.7640 deg Mean anomaly: 296.4099 deg Mean motion: 14.22074258 rev/day Decay rate: 4.2e-07 rev/day^2 Epoch rev: 14220 Checksum: 294
Satellite: JUGNU Catalog number: 37839 Epoch time: 12165.92014309 Element set: 0167 Inclination: 019.9624 deg RA of node: 018.0225 deg Eccentricity: 0.0018755 Arg of perigee: 185.8980 deg Mean anomaly: 174.1127 deg Mean motion: 14.12060277 rev/day Decay rate: 6.20e-06 rev/day^2 Epoch rev: 03478 Checksum: 293
